CW4677 Weather Reports


Display with metric or nautical units.
time (UTC)temp
F
wind
direction
speed
MPH
gust
MPH
rain 1hr
in
rain 24hr
in
rain mn
in
humidity
%
barometer
mb
20260830115749 84 117 6.0 6.0 0.00 0.00 0.00 29 1015.3
20260830114749 84 40 4.0 5.0 0.00 0.00 0.00 28 1015.3
20260830113749 84 153 0.0 4.0 0.00 0.00 0.00 29 1015.3
20260830112749 83 85 5.0 4.0 0.00 0.00 0.00 29 1016.3
20260830111749 83 128 5.0 6.0 0.00 0.00 0.00 29 1016.3
20260830110749 83 135 5.0 7.0 0.00 0.00 0.00 30 1016.3
20260830105749 82 162 0.0 4.0 0.00 0.00 0.00 30 1016.3
20260830104749 82 138 2.0 7.0 0.00 0.00 0.00 30 1016.3
20260830103809 82 161 6.0 8.0 0.00 0.00 0.00 30 1016.3
20260830102749 82 197 3.0 6.0 0.00 0.00 0.00 30 1016.3
20260830101809 81 136 4.0 4.0 0.00 0.00 0.00 30 1016.3
20260830100749 82 115 4.0 7.0 0.00 0.00 0.00 31 1016.3
20260830095749 81 152 8.0 6.0 0.00 0.00 0.00 30 1016.3
20260830094749 80 147 4.0 4.0 0.00 0.00 0.00 31 1016.3
20260830093749 80 171 4.0 6.0 0.00 0.00 0.00 31 1016.3
20260830092749 80 143 5.0 6.0 0.00 0.00 0.00 31 1016.3
20260830091749 79 181 4.0 6.0 0.00 0.00 0.00 32 1016.3
20260830090749 78 160 7.0 6.0 0.00 0.00 0.00 33 1016.3
20260830085749 78 107 4.0 5.0 0.00 0.00 0.00 33 1016.3
20260830060749 63 28 3.0 3.0 0.00 0.00 0.00 72 1016.3